sat.trackr.live / text

‹ back to catalog

YAOGAN-35 04C

NORAD 53526 · 2022-100E

PAYLOAD ACTIVE UNKNOWN

§ Identity

Operator
Country
PRC
Launch date
2022-08-19
Launch site
XICLF
Launch vehicle
Mass (kg)
RCS (m²)

External: N2YO · Heavens-Above · Gunter

§ Orbital elements

Epoch: 2026-09-20T22:36:35.114976Z

Period
94.56 min
Inclination
34.9945°
Eccentricity
0.0009589
Mean motion
15.22822814 rev/d
Perigee alt
490.7 km
Apogee alt
503.9 km
Semi-major
6,875.5 km
B*
1.9032e-4
RAAN
194.3962°
Arg perigee
208.8652°
Mean anomaly
151.1532°
Rev number
22,756

§ Raw data

YAOGAN-35 04C1 53526U 22100E   26263.94207309  .00004532  00000+0  19032-3 0  99902 53526  34.9945 194.3962 0009589 208.8652 151.1532 15.22822814227568

JSON: /api/v1/satellites/53526 · /tle

For live sub-satellite position, see the globe view (requires WebGL).

§ Visibility from observer

Set your observer location to see the next 7 days of passes ≥ 10°. The values pass through the URL so the page stays shareable.

No JS? Fill the form by hand. The geolocation button needs JavaScript.